星链-36404(STARLINK-36404)

导读

STARLINK-36404是美国SpaceX星链星座的卫星,于2026年2月2日发射,属于星链项目低轨宽带卫星网络组成部分。星链计划旨在为全球提供高速低延迟互联网覆盖,该卫星延续了星链批量发射、部署低轨星座的策略,助力拓展星链全球服务覆盖范围,进一步强化美国低轨卫星通信网络布局。

基本信息
目录编号:
67664
目录名称:
STARLINK-36404
国际标识:
2026-022S
轨道中心:
EARTH
卫星名称:
星链-36404
卫星全名:
星链-36404(STARLINK-36404)
卫星状态:
在轨 (已飞行214 天)
发射日期:
2026-02-02 UTC
国别 :
美国 (US)
星等 :
--
轨道信息
数据来源 国际轨道数据 AOE轨道数据
星历时间 2026-09-02T10:30:47+0800
1天前
查看轨道信息
2026-08-30T23:00:00+0800
4天前
查看轨道信息
半长轴 6843.677km 6843.652km
偏心率 0.0001277 0.000177
轨道倾角 97.284° 97.285°
近地点辐角 104.749° 104.970°
升交点赤经 276.863° 274.420°
平近点角 255.390° 255.273°
近地点 464.666km 464.303km
远地点 466.414km 466.727km
周期 93.906分钟 93.906分钟
每日圈数 15.334461 15.334547
详细信息
固有亮度:
5
最大亮度:
2.5
卫星平台:
Starlink V1.0
覆盖范围:
全球
运营商:
太空探索技术公司
运营商所在国:
美国
制造商(研发单位):
太空探索技术公司
制造商所在国:
美国
使用方式:
暂无
卫星简介
Starlink 计划是 SpaceX 推出的全球卫星互联网项目,通过发射低轨道卫星,为全球尤其是偏远地区提供高速、低延迟的互联网服务。自 2019 年起,Starlink 已部署数千颗卫星,旨在缩小全球数字鸿沟,推动互联网普及。该项目还为军事、航空等行业提供通信支持,带来广泛经济效益。
2D轨道图
3D轨道图
轨道高度分析图
轨道倾角分析图
轨道综合分析图
查看轨道综合分析图